Fort Belvoir, VA

2:20 AM EST on December 15, 2017 (GMT -0500)
Davison Army Air Field

Weather History for KDAA - February, 2014

Change the Weather History Date:

Friday, February 7, 2014

  Actual Average Record
Temperature  
Mean Temperature 32 °F -  
Max Temperature 41 °F 46 °F 71 °F (2017)
Min Temperature 22 °F 27 °F 17 °F (2007)
Degree Days  
Heating Degree Days 34    
Moisture  
Dew Point 20 °F    
Average Humidity 63    
Maximum Humidity 94    
Minimum Humidity 42    
Precipitation  
Precipitation 0.00 in - - ()
Sea Level Pressure  
Sea Level Pressure 30.34 in    
Wind  
Wind Speed 1 mph (West)    
Max Wind Speed 6 mph    
Max Gust Speed -    
Visibility 10 miles    
Events      
Averages and records for this station are not official NWS values.
T = Trace of Precipitation, MM = Missing Value Source: NWS Daily Summary

Daily Weather History Graph

Daily Weather History Graph

Search for Another Location

Airport or City:

Trip Planner

Search our weather history database for the weather conditions in past years. The results will help you decide how hot, cold, wet, or windy it might be!

Date:

Astronomy

Feb. 07, 2014 Rise Set
Actual Time 7:08 AM EST 5:37 PM EST
Civil Twilight 6:41 AM EST 6:05 PM EST
Nautical Twilight 6:09 AM EST 6:36 PM EST
Astronomical Twilight 5:38 AM EST 7:07 PM EST
Moon 11:48 AM EST (2/7) 1:22 AM EST (2/7)
Length of Visible Light 11h 23m
Length of Day
10h 28m
First Quarter, 59% of the Moon is Illuminated
Feb 7
First Quarter
Feb 14
Full
Feb 22
Last Quarter
Mar 1
New
Mar 8
First Quarter

Hourly Weather History & Observations

Time (EST) Temp. Windchill Dew Point Humidity Pressure Visibility Wind Dir Wind Speed Gust Speed Precip Events Conditions
12:58 AM 28.6 °F - 23.0 °F 80% 30.32 in 10.0 mi North - - N/A   Overcast
1:58 AM 28.8 °F - 21.2 °F 73% 30.32 in 10.0 mi Calm Calm - N/A   Overcast
2:58 AM 28.0 °F - 21.6 °F 77% 30.33 in 10.0 mi SSW 2.3 mph - N/A   Overcast
3:58 AM 27.0 °F - 22.5 °F 83% 30.32 in 10.0 mi Calm Calm - N/A   Overcast
4:58 AM 25.7 °F - 22.1 °F 86% 30.32 in 10.0 mi Calm Calm - N/A   Overcast
5:58 AM 23.4 °F - 21.7 °F 94% 30.35 in 10.0 mi Calm Calm - N/A   Clear
6:58 AM 22.6 °F - 20.7 °F 92% 30.37 in 10.0 mi Calm Calm - N/A   Clear
7:58 AM 22.8 °F - 21.4 °F 94% 30.39 in 10.0 mi Calm Calm - N/A   Clear
8:58 AM 31.1 °F - 23.0 °F 72% 30.38 in 10.0 mi Calm Calm - N/A   Clear
9:58 AM 35.8 °F 31.9 °F 17.4 °F 47% 30.38 in 10.0 mi WNW 4.6 mph - N/A   Clear
10:58 AM 38.5 °F 34.1 °F 17.2 °F 42% 30.38 in 10.0 mi SSW 5.8 mph - N/A   Clear
11:58 AM 39.7 °F - 18.0 °F 42% 30.35 in 10.0 mi Variable 2.3 mph - N/A   Clear
12:58 PM 40.3 °F 37.1 °F 18.5 °F 42% 30.30 in 10.0 mi Variable 4.6 mph - N/A   Clear
1:58 PM 40.6 °F 36.7 °F 19.6 °F 43% 30.30 in 10.0 mi Variable 5.8 mph - N/A   Partly Cloudy
2:58 PM 41.0 °F 38.0 °F 19.6 °F 42% 30.28 in 10.0 mi Variable 4.6 mph - N/A   Scattered Clouds
3:58 PM 40.6 °F 37.5 °F 19.2 °F 42% 30.28 in 10.0 mi SSW 4.6 mph - N/A   Clear
4:58 PM 40.8 °F - 19.9 °F 43% 30.30 in 10.0 mi WSW 1.2 mph - N/A   Partly Cloudy
5:58 PM 37.0 °F - 21.6 °F 54% 30.32 in 10.0 mi Calm Calm - N/A   Scattered Clouds
6:58 PM 32.9 °F 27.5 °F 24.1 °F 70% 30.35 in 10.0 mi NNW 5.8 mph - N/A   Clear
7:58 PM 33.8 °F - 20.3 °F 58% 30.35 in 10.0 mi Calm Calm - N/A   Clear
8:58 PM 30.4 °F - 19.4 °F 64% 30.35 in 10.0 mi NNW 2.3 mph - N/A   Clear
9:58 PM 30.9 °F - 17.8 °F 58% 30.35 in 10.0 mi North 1.2 mph - N/A   Clear
10:58 PM 30.0 °F - 16.0 °F 56% 30.36 in 10.0 mi Calm Calm - N/A   Clear
11:58 PM 30.2 °F - 15.3 °F 54% 30.36 in 10.0 mi Calm Calm - N/A   Overcast